DECAYED

OBJECT L, 43841 (Decayed)

Orbit data source: Space-Track

You're viewing an Uncataloged Satellite

Recently launched and/or uncataloged satellites may have evolving metadata. Metadata may include but not limited to: Owner, Maufacturer, Bus, Motor, and Mission.

OBJECT L, 43841 was a satellite in LEO that was launched on Fri, 07 Dec 2018 UTC via a CHANG ZHENG 2D launch vehicle from the Jiuquan Satellite Launch Center, China (JSC). Unknown objects in Earth's orbit typically refer to objects detected orbiting the Earth but have not yet been identified or cataloged. These objects could be anything from previously untracked satellites, spent rocket stages, debris from satellite collisions, or even natural meteoroids temporarily captured by Earth's gravity. This object's orbit decayed before it could be identified.

Not visible in the next 10 days
Identifier
43841, 2018-102L
Orbit
Decayed
Country
Flag of TBDTBD
Related business
None
Manufacturer
Jiutian
Mission
Decayed Commercial Communications
Bus & Motor
CUBESAT 3U?, Unknown motor
Mass
5 kg wet, 5 kg dry
Launch date (UTC)
2018-12-07 (7 years ago)
Launch vehicle
CHANG ZHENG 2D
Launch site
Jiuquan Satellite Launch Center, China (JSC)
Object type
Unknown
Shape & HBR
Box, 0.1 m
Radar Cross Section
0.035 m², Small (<0.1 m²)

Expand to show TLE details & history
Last TLE update: 1 year ago

TLE from 1 year ago
0 OBJECT L
1 43841U 18102L   24131.14994296  .15197164  25856-5  38788-3 0  9999
2 43841  97.4154 227.2257 0016048 271.4559  88.4904 16.44433122300478
Epoch: 2024-05-10T03:35Z
TLE epoch observation values (Epoch: 2024-05-10T03:35:55.071Z)
Latitude
-0.00007°
Longitude
-55.18833°
Altitude
157.034 km
Speed
7.812 km/s
True Right ascension
15h 08m 54s
True Declination
0° 00' 00"
Sunlit
Object was in full shadow at epoch
Visualization orbit readout
Latitude
Unknown
Longitude
Unknown
Altitude
Unknown
Speed
Unknown
Apparent Right ascension
Unknown
Apparent Declination
Unknown
Sunlit
N/A
Visualization observer readout
Local Sidereal Time
09:26:20
Azimuth
Unknown
Elevation
Unknown
Doppler factor
Unknown
Orbital elements
Apogee altitude
161.316 km
Perigee altitude
140.361 km
Semi-major axis
6,528.976 km
Eccentricity
0.0016
Inclination
97.4154°
RAAN
227.2257°
Arg. of periapsis
271.4559°
True anomaly
88.67424°
Mean anomaly
88.4904°
Eccentric anomaly
88.58232°
Mean motion
4.11411 °/min
Orbital period
87.5 mins
BSTAR
0.00038788
Loading maneuver chart data...
Computing Atmospheric mass density...
Loading historical data...
Loading historical data...
Loading historical data...
Loading historical data...
Loading historical data...
Loading historical data...
Loading historical data...

Documentation

Showing up to 5 results
|